Wind_Speed
22 22 21 19 17 16 15 14 15 15 14 13 12 11 10 10 10 10 10 11 11 12 13 14 16 19 22 25 28 30 31 33 34 34 35 35 34 34 34 35 36 38 38 38 38 37 38 39 40 41 42 43 44 46 47 48 49 51 52 53 55 56 57 59 60 62 65 68 70 70 70 72 74 77 81 82 83 83 81 79 77 76 76 76 75 69 66
21 21 19 16 15 14 14 14 14 14 13 11 10 9 9 9 9 9 10 10 11 12 13 14 16 18 19 21 23 25 27 28 29 30 31 32 32 34 35 36 37 37 37 37 37 37 37 39 41 43 43 45 46 47 48 50 51 52 53 55 56 57 59 61 61 61 63 67 70 71 72 73 76 79 82 84 84 83 80 78 77 76 75 74 76 71 65
20 18 16 14 14 14 13 13 13 12 11 10 9 8 8 8 9 9 10 11 11 12 14 15 17 18 20 21 23 24 25 27 28 30 31 32 34 35 36 36 36 36 36 36 37 38 38 40 42 44 45 46 48 49 50 51 52 54 55 56 58 58 60 63 63 63 64 66 69 70 71 73 76 80 83 84 83 80 78 77 76 76 73 72 75 72 64
17 15 14 14 14 13 12 12 11 11 10 9 9 8 8 9 10 11 11 12 13 14 16 17 19 20 21 22 24 25 27 29 30 31 32 34 35 35 35 34 34 35 35 36 38 39 40 41 43 45 46 47 49 50 51 53 54 56 57 58 59 59 61 65 66 66 68 70 71 71 71 73 76 80 82 82 79 76 75 75 74 74 72 69 71 71 65
14 14 14 14 13 12 11 11 10 10 10 9 9 9 9 10 11 12 13 14 15 16 18 19 21 22 23 25 26 28 29 30 31 32 33 33 33 33 33 33 34 35 36 37 39 40 42 43 44 45 47 48 50 51 53 54 56 57 58 59 60 60 62 65 66 68 71 73 74 74 73 73 75 79 80 78 76 73 72 73 72 72 72 68 67 68 65
14 15 14 13 12 11 11 10 10 10 10 9 10 10 11 12 13 14 15 16 18 19 20 22 23 24 26 27 28 29 30 31 31 31 31 31 32 32 33 34 35 36 38 39 40 42 43 45 46 47 49 50 51 53 54 56 57 59 60 61 62 62 62 65 66 67 72 76 75 74 73 72 74 77 77 74 72 71 70 70 72 72 70 65 62 61 62
15 14 13 12 11 10 10 10 10 10 10 11 11 12 13 14 14 16 17 18 20 21 22 24 25 26 27 27 28 29 29 30 30 30 31 31 31 32 34 35 36 38 39 40 41 43 44 46 47 49 50 52 53 54 56 58 59 60 62 63 64 63 62 64 64 65 71 76 74 72 71 70 72 75 75 72 70 70 69 70 70 68 63 60 58 57 59
14 13 12 11 10 10 10 10 10 10 11 12 13 14 14 15 16 18 19 20 22 23 24 25 25 26 26 26 27 28 28 29 29 30 31 31 32 33 35 36 38 39 40 42 43 44 46 47 49 50 52 54 55 56 58 60 61 62 63 64 64 64 62 63 62 60 65 71 70 68 68 68 70 71 71 71 70 69 69 67 66 62 57 56 58 58 58
13 12 11 10 10 10 10 10 11 12 13 14 15 16 16 17 18 19 20 22 23 23 24 24 25 25 26 26 27 27 28 29 29 30 31 32 34 35 36 38 39 41 42 43 45 46 48 49 51 52 54 55 57 58 59 61 61 63 64 63 64 63 61 60 57 53 57 63 64 64 66 67 69 68 67 67 66 64 63 61 61 60 57 58 60 61 62
12 11 10 10 10 10 10 11 13 14 15 16 16 17 18 18 20 20 21 22 23 23 24 24 24 25 25 26 26 27 28 29 30 31 32 33 35 36 38 39 41 43 44 45 47 48 49 51 52 54 55 56 58 59 60 61 61 62 62 61 60 59 56 55 54 52 54 59 61 61 63 66 67 65 62 60 58 57 57 59 61 62 61 62 63 64 65
11 10 10 9 10 10 12 13 14 15 16 17 17 18 19 19 20 21 21 22 23 23 23 23 24 25 25 26 27 27 28 29 30 32 33 35 36 37 39 41 42 44 45 46 48 49 50 52 53 55 56 57 58 59 59 60 59 59 58 56 55 55 55 55 57 56 56 58 59 59 62 64 60 56 53 53 53 54 56 60 65 65 64 66 67 68 70
10 9 9 9 10 12 13 15 15 16 17 17 17 19 19 19 20 21 21 22 22 22 23 23 24 25 25 26 27 28 29 30 31 33 34 35 37 38 40 41 42 44 45 47 48 49 51 52 53 55 56 56 56 56 56 55 55 55 54 54 54 56 57 58 58 56 54 54 55 54 56 58 54 50 51 53 54 56 58 62 69 70 69 70 71 73 75
9 9 9 10 12 13 14 15 16 16 16 17 17 18 19 19 20 20 21 21 22 22 23 24 24 25 25 26 27 28 29 30 32 33 34 35 37 38 40 41 42 44 46 47 48 49 50 51 52 53 53 53 52 53 53 53 54 54 55 56 56 56 56 54 52 50 47 46 47 47 49 52 53 52 54 56 57 60 60 64 71 75 75 75 75 77 79
8 9 10 11 12 13 14 15 15 16 16 17 17 18 19 19 19 20 20 21 22 22 23 24 24 25 25 26 27 29 30 31 32 33 34 36 37 39 40 42 43 44 45 46 47 48 48 49 49 51 51 51 51 52 53 53 54 54 53 53 52 49 48 46 44 43 42 42 44 47 50 54 55 55 57 59 61 63 63 64 70 76 78 79 79 79 81
9 10 11 12 13 14 14 15 16 16 16 17 17 18 18 19 19 20 21 21 22 22 23 24 25 25 26 27 29 30 31 32 33 34 36 37 38 40 40 41 42 43 43 44 45 46 47 47 48 49 49 50 50 50 49 49 48 47 45 44 43 42 41 42 42 43 44 45 47 49 52 55 57 58 60 62 63 66 67 67 71 76 80 81 81 82 84
10 11 12 12 13 14 15 15 15 16 16 17 18 18 19 20 21 21 22 23 23 24 24 25 26 27 28 30 31 32 33 34 34 35 36 37 37 38 38 39 40 41 42 43 43 43 43 42 42 42 41 40 40 40 39 38 38 38 38 38 39 40 42 44 46 47 49 50 52 53 55 58 60 62 63 65 67 69 71 71 72 77 81 83 85 86 88
11 12 12 13 14 14 15 15 16 16 17 18 19 20 21 22 23 23 24 25 25 26 26 27 28 28 30 31 31 32 32 33 33 33 33 34 34 35 36 37 37 37 36 35 34 33 32 32 32 32 31 30 30 30 30 31 33 34 36 38 41 43 45 47 49 52 53 55 57 59 61 64 66 67 68 69 70 72 74 74 75 78 82 86 89 91 93
11 12 13 14 15 15 16 17 17 18 19 20 21 22 23 24 25 25 26 27 27 27 27 27 28 29 29 30 30 30 30 30 30 30 31 32 33 33 32 30 28 26 25 25 26 26 27 27 27 28 28 28 29 29 30 31 33 36 38 41 43 45 48 50 53 55 57 59 60 62 64 67 69 70 71 72 74 76 78 80 82 84 86 89 92 96 98
12 13 14 15 16 17 17 18 19 20 21 22 23 24 24 25 26 26 27 27 27 27 27 27 27 27 27 27 27 28 28 28 29 30 30 30 28 24 21 19 19 20 21 23 24 25 26 27 28 29 30 30 32 33 34 35 36 39 41 44 46 48 50 53 55 57 59 61 63 63 65 68 71 72 75 77 79 81 83 85 88 91 93 94 97 100 104
14 15 16 17 18 18 19 20 20 21 22 23 24 25 25 25 26 26 26 26 26 26 26 26 25 25 25 26 26 27 28 28 28 26 23 19 16 15 15 16 18 20 21 23 24 26 27 28 29 31 33 34 36 38 40 42 42 44 45 48 50 51 53 55 57 59 61 64 66 67 68 72 75 76 79 82 84 86 88 90 93 96 100 101 103 105 109
15 16 17 18 19 19 20 21 21 22 23 24 24 25 25 25 24 24 25 25 25 24 24 24 24 24 25 26 26 26 26 24 20 16 12 10 11 13 15 17 19 21 23 25 26 28 30 31 33 35 37 39 41 42 44 47 49 50 51 52 54 55 57 59 61 63 65 67 70 72 74 77 80 82 84 87 90 93 96 97 99 101 104 107 109 110 113
17 18 18 19 20 20 21 22 22 23 23 24 24 24 24 24 24 24 24 24 24 24 24 24 24 25 25 25 24 21 18 13 10 8 8 10 12 14 16 19 21 23 25 27 28 30 32 34 37 39 41 43 44 46 47 49 51 53 55 56 58 60 61 64 66 68 70 72 75 77 79 82 86 88 90 93 95 99 101 103 105 107 110 113 115 117 118
18 19 19 20 21 21 22 22 23 23 23 23 23 23 23 23 23 23 24 24 24 24 24 24 24 23 22 19 15 11 8 6 6 7 9 12 14 16 18 20 22 24 26 29 31 33 35 38 40 41 43 44 46 47 49 51 54 57 59 61 63 65 66 68 69 71 74 77 80 82 84 87 90 93 95 98 100 103 106 108 110 113 115 117 120 122 123
19 20 20 21 21 21 22 22 23 23 23 23 23 23 23 24 24 24 24 24 24 23 22 22 20 18 14 10 7 4 4 5 7 9 11 13 16 18 20 22 24 26 29 31 34 36 38 40 42 44 46 47 49 51 53 55 57 60 62 64 66 68 70 71 73 76 78 80 83 85 87 91 94 96 98 101 104 107 110 112 114 116 118 120 122 124 126
20 20 20 21 21 22 22 22 22 22 23 23 24 24 25 25 25 24 23 22 21 20 19 17 13 9 6 4 3 3 5 7 9 12 14 16 18 20 22 24 26 28 31 33 35 38 41 43 46 48 50 52 54 55 57 59 61 63 65 68 70 72 74 76 78 80 82 84 86 87 89 94 98 101 102 104 106 108 111 114 117 119 121 123 124 126 129
20 20 20 21 21 21 21 22 22 23 24 25 26 26 26 25 24 22 20 19 18 16 13 10 6 4 3 3 4 5 7 9 12 14 16 19 21 23 25 27 28 31 33 36 38 41 44 47 49 51 54 56 58 60 61 63 66 68 70 73 75 77 79 81 82 83 86 88 89 91 92 94 99 103 105 107 109 111 113 116 119 122 123 125 125 127 128
19 19 20 20 21 21 22 23 24 25 26 26 26 26 24 22 20 18 16 15 14 11 7 5 4 4 4 5 6 8 10 12 14 16 18 21 23 25 27 29 32 34 37 39 42 45 48 50 53 55 58 60 62 64 66 68 70 73 75 78 80 82 83 85 85 86 88 91 93 95 95 96 99 103 107 110 113 116 118 120 122 123 125 126 127 127 128
19 19 20 21 22 23 24 25 25 26 26 26 24 23 20 18 16 15 14 12 9 7 5 5 5 5 5 7 8 10 12 14 17 19 20 23 26 28 31 33 36 38 40 43 46 49 51 54 57 59 62 64 66 68 71 73 75 77 80 82 84 85 87 88 89 91 92 95 97 100 102 104 106 109 113 116 119 121 122 123 125 126 127 128 129 130 129
20 20 21 22 24 25 25 26 25 25 24 23 21 18 16 15 14 13 11 9 7 6 6 6 6 7 8 9 11 13 15 17 19 22 24 26 29 32 35 37 40 42 44 47 50 53 55 58 61 63 66 68 70 72 75 77 79 81 83 85 87 89 91 93 94 96 98 100 103 106 108 111 113 116 118 121 124 125 126 127 127 128 129 129 130 130 128
21 22 23 24 25 25 25 24 23 21 20 18 16 15 14 13 12 11 9 8 8 8 8 8 8 9 10 12 14 16 18 20 22 25 28 30 33 36 39 41 44 46 49 51 54 56 59 62 65 67 70 72 74 76 78 80 82 84 86 88 89 91 94 96 99 101 103 105 108 111 114 117 119 121 123 125 128 129 129 129 129 129 129 128 127 126 124
23 23 24 24 24 23 22 21 19 17 16 14 13 13 13 12 10 9 9 10 9 9 9 9 10 12 13 14 16 19 21 24 26 29 32 34 37 40 42 45 48 50 53 55 58 60 63 66 68 71 73 75 77 79 81 83 85 87 88 90 92 94 97 100 103 106 108 110 112 115 117 120 123 125 126 127 128 129 129 129 128 127 126 125 123 121 119
23 23 23 23 22 20 19 17 16 14 13 12 12 12 11 10 10 10 11 11 10 10 11 12 13 14 15 17 19 22 24 27 30 32 35 38 41 43 46 49 52 54 57 59 62 64 66 69 71 74 76 77 79 81 83 85 87 89 90 92 94 97 99 102 105 108 111 114 116 118 120 122 124 126 127 128 129 129 128 127 126 125 122 120 118 116 114
22 21 21 20 19 17 16 15 14 13 12 11 11 11 11 11 11 12 12 11 11 11 13 14 15 17 19 21 23 26 28 30 33 36 39 41 44 46 50 52 55 58 60 63 65 67 69 72 74 76 78 80 81 83 85 87 89 91 92 94 97 99 101 104 107 110 114 117 120 122 124 125 126 127 127 128 128 127 127 126 124 122 118 116 114 112 109
20 19 19 18 17 16 15 14 13 12 11 11 11 11 12 12 12 12 12 12 13 13 15 16 18 20 22 24 26 29 31 34 37 39 42 45 47 50 53 56 59 61 63 65 67 70 72 74 76 78 80 82 84 86 87 89 91 93 95 98 100 102 104 107 110 113 117 120 123 125 127 128 128 127 127 127 126 126 125 124 121 118 114 112 110 109 107
18 18 17 16 16 15 14 13 12 11 11 11 12 12 13 13 13 13 13 14 15 16 17 19 21 23 25 27 29 32 34 37 40 42 45 48 51 54 56 59 62 64 66 68 69 72 74 76 78 80 82 84 86 88 90 91 93 96 98 101 103 105 107 109 112 115 118 121 124 127 128 128 128 127 126 126 125 124 122 119 117 114 112 110 108 107 106
17 17 16 16 15 14 13 12 12 11 11 12 13 14 14 14 14 14 15 16 17 18 20 22 24 26 28 30 33 35 38 40 43 46 48 51 54 57 59 62 64 66 68 70 71 73 76 78 80 82 84 86 87 90 92 94 96 99 101 104 107 109 112 114 115 117 120 123 126 128 129 128 128 127 126 125 124 122 119 116 113 111 110 108 106 105 103
16 16 16 15 14 13 13 12 11 11 12 14 14 15 15 15 15 16 17 18 19 21 23 25 27 29 31 33 35 38 41 44 46 49 51 54 56 59 61 64 66 68 70 72 74 76 78 79 81 83 86 88 90 92 95 97 100 103 105 108 111 113 116 118 121 122 123 125 127 128 128 127 126 125 124 122 119 116 113 111 109 107 106 105 104 102 100
16 16 16 16 14 14 13 12 12 12 14 15 16 16 16 17 17 18 18 20 21 23 25 27 29 31 33 35 37 40 43 46 48 51 53 56 58 61 63 65 68 70 72 74 76 79 80 81 83 85 88 90 92 95 98 101 104 107 109 112 115 117 120 123 125 127 127 128 128 128 127 125 123 121 119 116 112 109 106 104 103 102 102 102 102 101 100
17 17 17 16 15 14 13 13 13 14 15 16 17 18 18 18 19 20 21 22 24 25 27 29 31 33 35 38 40 42 44 48 51 53 55 58 60 63 65 67 69 72 74 76 78 80 82 83 85 87 90 92 95 98 102 105 108 111 113 116 118 121 124 126 129 130 131 131 131 131 129 128 125 122 118 114 109 106 103 100 100 100 100 100 100 99 97
17 17 17 17 16 15 14 14 14 15 16 17 18 19 20 20 21 22 23 24 26 28 30 31 34 35 37 40 43 45 47 50 53 56 58 61 63 65 67 69 71 73 76 77 79 82 84 86 88 90 93 96 99 102 105 108 112 114 117 119 122 124 127 129 131 132 132 132 131 130 129 128 125 122 119 115 111 108 104 102 101 100 100 99 98 97 95
17 17 17 17 17 16 16 15 15 16 17 19 20 21 22 22 23 24 25 27 29 30 32 34 36 38 40 42 45 48 51 53 56 58 61 63 65 67 69 71 73 75 77 79 81 84 87 89 91 94 97 100 103 106 108 111 114 117 120 122 125 127 129 130 131 131 131 129 128 126 125 123 122 120 117 115 112 110 107 105 104 102 101 100 98 97 95
18 18 18 18 18 18 17 17 17 18 19 20 21 22 23 24 25 27 28 30 32 33 35 37 39 41 43 46 48 50 53 56 58 61 63 65 67 69 71 73 75 77 79 81 84 87 89 92 94 98 101 104 107 109 111 113 116 119 123 125 127 128 128 129 128 128 127 126 124 123 120 119 117 116 114 113 111 110 109 108 106 104 103 102 100 98 95
18 18 19 19 19 19 19 19 19 19 20 21 22 24 25 27 28 29 31 32 34 36 38 40 42 44 46 49 51 54 56 58 61 63 65 66 68 70 72 74 76 79 81 84 87 90 92 95 98 101 105 108 110 112 114 117 119 121 124 126 127 127 127 126 125 124 124 123 121 119 117 115 114 113 113 112 111 110 108 107 106 105 104 103 101 100 97
19 19 19 20 20 20 20 20 21 21 22 23 24 26 27 29 31 32 34 35 37 39 41 43 45 47 50 52 54 57 59 60 62 64 66 68 70 72 74 76 79 82 84 87 90 93 96 99 102 105 108 110 113 115 117 120 121 122 123 124 125 125 124 123 123 122 120 119 117 115 113 112 111 111 111 112 111 109 107 105 104 104 103 102 101 99 98
21 20 20 20 20 21 21 22 22 23 24 25 26 28 30 31 33 35 37 38 40 42 44 46 48 50 52 54 56 58 60 62 64 66 68 70 72 74 77 80 82 85 88 90 93 96 99 102 105 108 110 112 115 117 120 121 122 122 122 121 121 121 121 121 120 118 117 115 113 111 110 109 109 109 109 110 110 109 107 106 104 103 102 101 99 98 96
22 22 21 21 21 22 22 23 24 24 25 27 28 30 32 34 36 37 39 41 43 44 46 48 50 52 54 56 58 59 62 64 66 68 70 73 75 78 81 83 86 88 90 93 96 99 102 105 108 110 113 115 117 119 120 121 122 121 120 119 119 119 118 118 116 115 113 112 110 109 109 108 108 108 108 108 109 108 107 106 105 103 101 100 98 96 94
23 23 22 22 23 23 23 24 25 25 27 28 30 31 33 35 37 39 40 42 44 46 47 49 51 53 55 57 59 61 64 66 68 70 73 76 79 82 84 87 89 92 94 97 100 102 105 108 111 114 116 118 119 119 119 119 119 118 118 117 117 117 116 115 114 112 111 110 109 108 108 107 107 107 107 107 107 107 107 105 104 102 100 99 97 96 94
24 23 23 24 24 24 25 25 26 27 28 29 30 32 33 35 37 39 41 42 44 46 48 50 53 55 57 59 61 64 66 69 71 73 76 79 82 85 87 90 93 96 99 101 104 107 109 112 114 117 118 119 119 119 118 117 116 116 115 115 114 114 113 112 111 110 109 108 108 107 107 107 107 106 106 106 106 106 105 104 102 100 99 97 96 95 94
25 25 25 25 25 26 26 27 28 28 29 30 31 33 34 36 38 40 42 44 46 48 51 53 55 57 60 62 64 67 69 72 75 77 80 83 85 88 91 94 96 99 102 105 108 111 113 116 117 118 118 119 118 117 116 115 114 114 113 113 112 112 111 110 110 109 109 108 108 108 107 107 106 105 105 104 104 104 103 102 100 98 97 96 95 94 93
27 27 26 27 27 28 29 29 30 31 32 33 34 35 37 38 40 42 44 47 49 51 53 56 58 61 63 65 68 70 73 76 78 81 83 86 89 91 94 97 100 103 106 109 112 115 116 118 118 117 117 116 115 115 115 114 113 112 112 111 111 111 110 110 109 109 109 109 108 108 107 107 106 105 104 103 102 101 101 100 99 98 96 96 95 93 92
28 29 29 29 30 31 31 32 33 34 35 36 37 39 40 42 44 46 48 50 52 54 56 59 62 64 67 69 72 74 77 79 82 84 87 89 92 94 97 100 103 106 109 112 115 117 118 119 118 117 115 113 113 112 112 112 111 111 110 110 110 110 109 109 109 109 109 109 108 108 107 106 106 105 104 103 102 100 99 98 98 97 96 94 92 91 90
30 30 31 32 32 33 34 35 36 37 38 39 41 42 43 45 47 49 51 53 55 57 60 63 65 68 70 73 76 78 81 83 86 88 91 93 96 99 101 104 107 110 113 115 117 118 119 119 118 116 114 112 111 110 109 108 108 109 109 109 109 109 109 109 109 109 109 108 108 107 106 106 106 105 104 103 101 99 97 96 95 94 92 90 89 88 88
Wind_Direction
257 251 247 245 245 246 247 248 249 251 254 255 258 262 266 269 271 271 270 271 270 269 268 267 263 261 260 260 261 262 263 265 266 268 270 271 273 275 276 278 279 280 280 280 281 282 283 284 286 286 287 288 289 290 291 292 293 294 295 296 297 298 298 299 299 301 303 303 304 305 307 308 308 308 308 308 308 310 312 315 316 316 316 315 316 318 318
247 243 240 240 241 241 240 243 246 248 250 252 255 260 264 268 272 272 272 273 274 275 276 275 272 270 268 267 267 268 268 269 270 271 273 275 277 278 279 279 280 280 280 281 282 283 284 286 287 288 289 289 290 291 292 293 293 294 295 296 297 298 299 299 300 301 302 303 304 306 307 308 308 308 307 308 308 311 313 315 316 315 315 315 314 315 319
239 236 236 235 234 234 236 239 242 244 246 249 252 256 262 267 272 275 275 276 278 279 279 277 276 275 274 273 273 273 273 274 274 275 277 278 279 279 279 279 280 280 281 283 284 285 286 287 287 288 289 290 291 292 293 293 294 295 296 297 298 299 300 301 302 303 303 303 304 305 307 308 308 308 307 307 309 312 314 315 315 314 314 314 313 315 320
232 231 230 229 228 228 232 235 236 240 243 247 251 258 266 272 276 279 281 282 283 283 281 280 279 278 277 278 278 278 278 278 278 278 278 278 278 278 279 279 280 281 283 285 286 287 288 288 288 289 290 290 291 293 293 294 295 296 297 298 299 301 301 302 303 305 305 305 306 307 309 310 309 308 307 307 310 313 315 315 315 313 313 315 314 317 321
226 226 223 222 221 223 225 229 234 239 243 248 255 264 270 276 280 283 285 285 284 283 282 282 283 283 283 282 282 281 280 279 279 279 278 278 278 278 279 280 282 284 285 287 288 289 289 289 290 290 291 291 292 293 294 295 296 297 298 299 300 302 302 303 305 307 307 307 308 310 311 311 309 308 307 308 311 314 316 316 315 313 314 317 319 320 320
218 218 216 215 215 217 223 230 235 241 248 255 262 268 273 277 280 282 283 283 284 284 284 285 285 285 284 282 281 280 279 278 279 278 278 278 278 279 281 282 284 285 287 288 289 290 291 291 292 292 293 293 294 295 295 296 297 298 299 300 301 303 304 305 307 309 308 307 309 310 311 311 309 307 307 309 313 316 317 316 315 314 317 321 323 322 321
212 210 209 208 211 217 226 233 240 248 256 263 268 272 276 279 281 283 284 285 285 286 286 285 284 283 282 282 281 280 280 279 279 279 279 280 280 281 283 285 286 287 289 290 291 291 292 293 294 294 295 295 296 296 297 297 299 300 301 302 303 305 308 308 310 312 310 308 309 310 310 310 309 307 308 312 316 317 317 316 315 316 320 323 323 323 323
205 204 204 207 214 223 232 241 250 258 265 270 274 276 279 282 284 285 286 286 286 286 285 284 283 283 282 282 281 281 281 280 280 281 281 282 283 284 285 286 288 289 290 291 292 293 293 294 294 295 295 296 297 298 298 299 300 301 303 305 306 309 311 311 312 313 310 308 309 310 310 310 308 308 311 315 317 318 317 317 317 319 323 324 323 324 324
200 203 206 213 222 231 242 252 261 266 271 274 277 280 283 284 286 287 287 286 285 285 284 284 284 284 284 283 283 283 283 283 283 284 284 285 286 287 288 289 289 290 291 292 293 294 294 295 295 296 296 297 298 299 300 301 303 304 306 307 309 310 312 311 312 313 311 308 308 309 309 308 308 310 314 316 318 319 319 320 320 321 324 324 322 323 323
202 207 214 222 233 244 255 262 268 272 275 278 281 284 286 287 288 289 288 287 286 286 286 286 286 286 286 286 286 286 286 286 286 286 287 288 288 289 289 290 290 292 293 294 294 295 296 297 297 298 299 300 301 302 303 305 306 306 307 309 309 310 311 311 311 312 309 306 306 308 308 308 309 314 317 319 320 322 323 322 320 320 322 322 321 322 322
208 215 224 236 247 257 264 269 273 277 280 283 286 288 289 290 290 290 290 289 289 289 289 289 289 289 289 290 289 289 289 289 289 289 289 289 290 290 291 292 293 294 295 296 297 298 299 299 300 301 301 303 304 305 306 306 306 307 308 309 310 310 310 310 309 309 309 307 308 310 310 310 313 318 321 322 322 323 324 322 319 319 322 321 321 323 323
218 227 239 250 260 267 272 275 278 282 285 289 290 291 292 293 292 292 292 292 292 293 293 292 292 293 293 293 293 293 292 292 292 292 292 292 292 293 294 294 295 296 298 299 300 301 302 303 303 303 304 304 305 305 306 306 306 307 308 309 310 309 309 310 310 312 313 313 313 314 313 313 318 323 323 323 323 323 324 322 319 320 322 322 323 324 323
232 244 256 265 271 274 277 280 283 286 289 292 292 293 294 295 295 294 295 295 296 296 296 297 298 298 298 297 297 296 296 295 295 294 295 295 295 295 297 298 299 301 302 303 304 305 304 304 304 304 304 305 305 306 306 307 307 308 310 311 311 311 312 314 316 318 319 319 318 318 317 317 321 324 323 323 324 324 325 324 321 320 321 322 323 323 322
251 262 269 274 276 279 281 283 286 288 291 293 294 294 296 296 296 296 296 296 296 297 298 299 300 299 299 298 297 296 295 295 295 295 296 297 299 300 303 304 305 306 306 306 305 305 304 304 304 305 305 306 307 307 308 309 310 313 315 315 316 317 319 320 322 323 323 323 321 321 321 320 322 323 323 324 324 323 324 324 321 319 320 321 322 321 319
264 269 273 276 279 282 284 287 289 291 294 295 295 296 296 295 295 295 295 295 295 296 297 297 297 297 296 295 295 295 296 297 298 300 302 304 306 307 308 308 307 307 306 306 306 306 307 307 307 307 308 309 310 311 312 314 317 320 322 322 323 325 325 325 325 324 324 324 323 322 322 321 321 323 323 323 323 323 323 324 321 318 318 319 319 318 318
268 273 277 281 285 287 290 291 293 294 294 294 294 293 293 293 293 294 294 295 295 295 296 296 296 296 296 296 298 299 300 302 304 306 307 308 308 308 308 307 307 308 309 310 311 313 314 315 315 315 317 319 319 320 323 326 329 330 330 328 328 329 328 327 326 325 325 324 323 323 322 321 321 323 323 323 323 322 321 322 319 317 317 318 318 318 317
275 280 283 285 287 288 289 290 290 290 290 290 291 291 292 293 293 294 295 295 295 297 298 298 299 299 300 301 303 304 304 306 307 307 308 308 308 308 309 311 313 316 320 323 327 330 333 335 334 334 337 338 337 336 337 337 337 334 332 330 329 329 328 327 327 326 325 324 324 324 323 322 322 323 322 322 321 320 319 320 319 318 317 318 318 318 317
280 281 282 283 284 285 286 287 288 289 289 290 291 292 293 294 295 295 296 298 299 300 301 302 302 302 303 304 305 305 306 307 307 307 308 308 310 313 317 322 329 336 342 346 348 349 350 350 348 346 347 346 344 342 340 338 336 334 332 330 329 329 328 327 326 325 324 323 323 324 322 320 320 320 320 320 320 320 320 320 320 319 319 318 318 318 318
279 280 281 282 284 285 287 288 290 291 291 293 294 294 295 296 297 299 301 302 303 303 303 303 304 304 305 305 306 306 307 307 307 308 310 314 319 327 337 345 351 355 355 354 352 351 350 350 348 346 345 344 343 341 339 338 336 335 333 331 330 329 328 326 325 324 323 321 322 322 320 318 319 320 320 320 321 321 321 321 320 320 320 320 319 319 319
280 282 283 284 286 288 289 291 293 294 295 296 296 297 298 300 302 303 303 303 303 303 304 305 306 306 306 306 306 306 306 307 310 314 320 329 339 351 357 358 356 354 353 352 350 349 348 347 346 345 344 343 342 341 339 337 336 336 334 332 331 330 328 326 324 323 322 321 322 322 321 319 320 321 322 322 322 322 322 322 322 321 321 321 320 320 319
282 283 285 287 289 291 294 296 297 297 297 298 298 299 301 302 302 302 302 303 304 305 306 307 307 306 305 304 304 306 308 313 319 329 342 354 358 358 356 354 353 352 350 349 348 347 346 344 344 343 342 342 341 340 339 337 335 335 334 331 329 328 327 326 325 324 324 323 324 325 324 322 322 323 324 324 323 323 323 323 323 322 321 321 320 320 320
284 286 289 292 294 296 298 298 298 298 298 299 299 300 300 301 301 302 303 305 306 307 306 306 304 303 302 303 306 310 316 325 337 352 1 358 354 353 351 350 350 348 346 345 344 343 342 342 342 341 340 339 338 337 336 334 332 331 331 329 328 328 328 327 327 326 325 324 325 326 325 323 323 324 325 325 324 324 324 323 322 322 321 321 321 321 320
290 292 295 296 297 297 298 297 297 298 298 299 299 300 300 301 302 304 304 306 306 306 304 303 301 301 303 307 312 319 331 347 354 354 353 350 349 348 347 346 345 343 342 340 340 340 340 339 338 337 336 335 334 333 333 332 330 330 329 329 328 328 328 328 327 326 326 325 326 327 327 324 324 324 325 324 324 324 323 322 322 322 322 321 321 320 320
294 295 296 296 297 297 297 298 298 299 299 299 299 300 301 302 303 304 305 305 305 303 301 300 301 303 307 312 320 332 343 346 345 345 345 344 344 343 341 340 339 338 337 337 337 337 337 336 335 334 333 332 332 332 331 330 330 329 328 328 328 328 328 328 328 327 327 327 327 327 326 324 323 324 324 324 323 323 322 322 321 321 321 320 320 319 319
295 296 297 297 298 298 299 299 300 299 299 299 300 301 302 303 304 305 305 304 301 298 297 299 301 304 303 302 308 322 331 336 338 339 339 339 339 338 336 335 335 334 335 335 334 334 335 334 333 332 332 331 331 330 330 329 328 328 327 327 328 328 328 328 329 328 327 327 326 326 326 324 323 323 324 323 323 322 321 320 320 320 319 319 319 319 319
296 297 298 298 298 298 299 299 298 298 299 300 301 303 303 304 304 304 302 298 295 294 295 295 289 276 263 275 299 317 327 331 333 334 335 335 334 333 332 331 331 332 332 333 333 334 334 333 332 331 331 330 330 329 328 328 328 328 327 328 328 329 329 329 329 328 327 326 325 325 325 324 322 322 322 321 321 321 320 320 319 319 319 319 318 318 318
296 297 297 298 298 298 298 298 298 299 300 301 302 302 303 302 301 297 292 290 289 287 280 263 242 242 261 286 305 317 322 326 328 330 331 330 329 329 328 329 330 331 332 333 333 333 332 331 330 330 330 329 328 328 328 328 328 328 328 329 329 329 329 328 328 327 326 325 324 324 323 323 322 321 321 321 321 321 320 320 319 318 318 318 318 318 318
298 298 298 299 299 299 298 298 299 300 300 301 301 300 299 296 290 285 283 281 275 262 242 231 238 255 275 293 305 312 318 322 324 324 324 325 325 326 327 328 329 330 331 332 332 331 330 330 329 329 328 328 328 328 328 328 329 329 329 329 329 328 328 327 326 326 325 324 324 323 323 323 323 323 322 322 321 320 320 319 319 319 319 319 319 319 318
300 300 300 300 300 299 299 300 301 301 300 299 297 295 291 285 279 276 272 262 244 230 227 237 253 270 285 297 307 312 316 319 320 320 321 322 324 325 326 327 328 329 330 331 330 330 329 329 328 328 328 327 328 328 328 329 329 329 329 329 328 327 327 326 326 325 325 324 324 324 324 324 324 323 322 321 321 320 320 320 320 320 320 319 319 318 317
303 303 303 302 301 301 301 302 301 300 298 295 291 286 279 273 269 264 252 234 223 225 234 249 265 279 291 301 308 312 315 317 319 320 321 323 324 325 326 326 328 329 329 329 329 328 328 328 328 327 327 327 327 328 328 329 329 329 328 328 327 326 326 325 325 325 325 324 324 324 324 324 323 323 322 322 321 321 321 321 320 320 319 319 318 317 317
306 305 304 302 302 303 303 302 299 296 293 289 283 276 269 263 256 243 229 222 224 235 248 262 275 286 295 302 307 311 314 316 319 321 321 322 323 324 325 327 328 328 328 328 328 328 328 327 327 327 327 327 327 328 328 328 328 328 327 327 326 326 325 325 325 325 324 324 324 324 323 323 323 322 322 321 320 320 320 320 319 319 318 318 318 318 318
306 305 304 304 304 304 303 300 298 294 289 282 274 266 259 251 238 227 223 226 235 249 262 273 282 290 297 302 307 311 315 317 319 320 321 322 323 325 326 326 327 327 327 327 327 327 327 327 326 326 326 326 327 327 328 328 327 327 326 325 325 325 325 324 324 323 323 323 323 323 322 322 321 321 320 320 320 319 319 319 319 319 319 319 319 319 320
307 306 306 305 306 306 304 301 298 293 284 274 264 255 245 236 227 224 229 238 249 262 272 281 289 296 301 306 310 313 316 317 318 319 320 321 323 325 325 326 326 326 326 327 327 326 326 326 326 325 325 326 327 328 327 327 326 325 325 324 324 324 324 323 323 322 322 322 322 322 321 321 320 320 319 319 319 319 319 319 319 320 320 320 320 321 321
309 309 308 308 308 308 305 301 296 290 277 264 253 243 235 229 228 232 239 250 261 271 279 286 293 299 304 308 311 314 316 317 318 319 320 322 323 325 325 325 325 325 325 326 325 325 325 325 325 325 325 326 327 327 326 325 325 324 323 323 323 323 323 322 322 322 322 321 321 321 320 320 319 319 319 319 319 319 320 320 321 321 322 322 322 322 322
312 311 309 310 311 309 305 300 293 283 269 256 246 239 235 233 235 242 251 260 270 278 285 291 297 301 305 309 311 313 314 316 317 319 321 322 323 324 324 324 324 324 324 324 324 324 324 324 324 325 325 326 326 325 324 324 323 323 322 322 322 322 321 321 321 321 320 320 320 319 319 319 319 319 320 320 320 321 321 322 322 322 323 323 323 323 323
312 312 311 311 311 310 305 299 289 276 262 250 243 240 239 240 244 252 261 270 278 284 289 295 299 303 306 309 311 313 314 316 318 320 321 322 323 323 323 323 323 323 323 323 323 323 323 324 324 325 325 325 325 324 323 322 322 322 322 321 321 321 321 320 320 320 320 320 319 318 318 319 319 320 321 321 322 322 322 323 323 324 323 323 323 323 323
313 313 312 312 312 309 304 296 283 268 255 247 243 243 244 246 252 260 269 277 283 288 292 297 300 303 306 309 311 313 315 316 318 319 320 321 321 321 321 321 321 321 322 322 322 322 323 324 324 324 324 324 323 323 322 322 321 321 321 321 320 320 320 320 320 320 320 319 318 318 318 319 320 321 321 322 322 323 323 324 324 323 323 323 323 323 323
315 314 314 314 312 308 301 292 278 263 252 247 246 246 248 252 259 267 275 281 286 290 294 298 301 303 306 308 310 312 314 315 317 318 319 319 319 319 320 320 320 320 320 321 321 322 323 323 323 323 323 322 322 322 321 321 321 321 321 320 320 320 320 320 320 319 319 319 319 319 319 320 321 321 321 322 322 323 323 323 323 323 323 323 323 323 324
317 316 315 314 312 307 299 289 276 263 254 251 250 250 252 257 263 271 278 283 288 291 295 298 301 303 306 308 310 312 314 315 316 316 317 317 317 318 318 319 319 319 320 321 322 322 322 322 322 322 322 322 321 321 321 321 321 320 320 321 321 321 320 320 319 319 319 320 320 321 321 322 322 322 322 323 323 323 324 324 324 324 324 323 323 323 324
318 317 316 314 311 306 299 288 277 266 259 255 254 254 256 260 266 273 279 284 289 292 296 299 301 304 306 308 310 312 313 314 314 315 315 316 316 317 318 318 319 320 321 322 322 321 321 321 321 321 321 321 321 321 321 321 321 321 321 321 321 320 320 320 320 320 320 321 321 322 322 323 323 323 323 324 324 324 325 325 325 325 324 324 324 324 324
319 317 315 313 309 305 298 290 281 272 264 260 258 258 260 264 269 275 281 286 290 294 296 299 302 304 307 309 310 311 312 313 313 314 314 315 316 317 318 319 320 321 321 320 320 319 319 320 320 321 321 321 321 321 321 321 321 321 321 321 320 320 320 320 320 320 320 321 321 322 322 323 323 323 323 324 324 325 326 326 326 326 325 325 325 325 325
320 317 314 311 308 303 298 292 285 278 271 266 264 263 264 267 272 278 282 287 291 294 297 300 302 305 307 308 310 310 311 312 312 313 314 315 316 318 319 320 320 320 319 319 319 319 319 320 320 320 320 320 320 320 321 321 321 321 321 320 320 320 319 319 319 319 320 321 321 322 323 323 323 323 323 324 325 325 326 326 326 326 326 326 326 326 326
321 318 315 312 308 304 299 294 289 283 278 273 270 269 270 272 276 280 284 288 292 295 297 300 303 305 306 307 308 309 310 311 312 313 314 316 317 318 319 319 318 318 318 318 318 318 319 320 320 320 320 320 320 321 321 321 321 321 320 320 319 319 319 319 319 320 320 321 322 323 323 323 323 323 324 324 325 326 326 326 326 326 326 326 326 326 326
321 318 316 312 309 305 301 296 292 288 283 280 277 276 276 277 280 283 286 290 293 295 298 301 303 305 306 307 308 309 310 311 313 314 315 316 317 317 317 317 317 317 317 318 318 318 319 319 320 320 320 320 321 321 321 321 320 320 319 319 318 318 319 319 320 320 321 322 322 323 323 323 324 324 324 324 325 325 326 326 326 326 326 326 327 327 327
321 319 317 313 310 306 303 299 295 291 288 286 283 282 282 283 285 287 290 293 295 297 299 301 303 305 306 307 308 310 311 312 314 315 316 316 316 316 316 316 316 317 317 318 318 319 319 319 319 319 320 320 320 320 320 320 319 319 318 318 318 319 319 320 320 321 321 322 322 323 323 323 324 324 324 324 325 325 326 326 327 327 326 326 326 327 327
320 319 317 314 311 307 304 301 298 295 293 290 289 288 287 288 289 291 292 295 297 299 300 302 303 305 306 308 309 311 312 314 315 315 315 315 315 315 316 316 316 317 317 318 318 319 319 319 319 319 319 319 320 320 320 319 319 319 319 319 319 319 320 320 321 321 322 323 323 323 323 324 324 324 325 325 325 325 326 326 326 326 326 326 326 327 327
320 319 317 315 313 310 307 304 302 300 298 295 294 293 293 293 294 295 296 298 299 301 302 304 305 307 308 310 311 312 313 314 314 314 314 314 315 315 316 316 317 317 318 318 318 318 318 318 318 319 319 319 320 320 319 319 319 319 319 320 320 320 320 321 321 322 322 323 323 323 324 324 325 325 325 325 325 325 325 326 326 326 326 326 326 327 327
319 318 317 316 314 312 310 309 307 305 304 302 301 300 300 299 300 300 301 302 303 305 306 307 309 310 311 312 312 313 313 312 313 313 314 315 316 316 316 317 317 318 318 318 318 318 318 318 319 319 319 319 319 319 319 319 319 320 320 320 320 321 321 322 322 322 323 323 323 324 324 325 325 325 325 325 325 325 325 325 325 326 326 326 327 327 328
319 318 318 317 316 315 314 313 312 311 310 308 307 306 306 305 305 305 306 307 308 309 310 311 311 311 311 311 312 312 312 313 314 315 315 316 316 317 317 317 318 318 318 318 318 318 319 319 319 319 319 320 320 320 320 320 320 321 321 321 321 322 322 322 323 323 323 324 324 324 325 325 325 325 325 325 325 324 324 325 325 326 326 327 328 328 328
318 318 318 318 317 317 316 315 315 314 313 312 311 310 310 310 310 310 310 311 311 311 311 311 311 311 311 311 312 312 313 314 315 316 316 316 317 317 317 317 317 318 318 318 318 319 319 319 319 320 320 320 321 321 321 321 322 322 322 322 322 323 323 323 323 323 323 324 325 325 325 325 325 325 325 325 325 325 325 325 326 327 328 328 329 328 328
316 317 317 317 317 316 316 316 315 314 313 313 312 312 311 311 311 311 311 311 311 311 311 310 311 311 312 312 313 314 315 315 316 316 316 317 317 317 317 317 317 318 318 319 319 320 320 320 320 320 321 322 322 322 322 323 323 323 323 323 323 323 323 323 323 323 324 324 325 325 325 325 325 324 325 325 325 326 326 327 327 328 328 328 328 328 327
315 316 316 316 316 315 315 314 314 313 313 312 312 312 312 312 312 312 312 312 311 311 311 311 312 312 313 314 314 315 315 316 316 316 317 317 317 317 317 317 318 319 320 320 321 321 321 321 321 322 322 323 323 323 323 323 324 324 324 324 323 323 323 323 323 324 324 324 324 324 324 324 324 325 325 326 326 327 327 327 327 327 327 328 328 327 327
Height
10649 10649 10648 10648 10648 10648 10648 10649 10649 10650 10650 10650 10649 10649 10649 10649 10649 10649 10649 10649 10649 10649 10649 10649 10650 10650 10650 10650 10650 10650 10649 10649 10649 10648 10648 10647 10646 10645 10644 10643 10642 10641 10640 10638 10637 10636 10634 10631 10629 10628 10626 10624 10622 10620 10617 10615 10612 10610 10607 10604 10600 10598 10595 10592 10589 10585 10578 10571 10566 10563 10560 10555 10549 10541 10533 10527 10522 10519 10516 10514 10511 10506 10501 10492 10486 10491 10491
10647 10647 10647 10647 10647 10647 10647 10648 10648 10649 10649 10648 10648 10648 10648 10648 10648 10648 10648 10648 10648 10648 10648 10648 10648 10648 10648 10648 10648 10648 10647 10647 10646 10646 10645 10644 10643 10642 10641 10640 10639 10638 10636 10635 10633 10632 10631 10628 10625 10623 10622 10620 10617 10615 10613 10610 10607 10604 10602 10599 10595 10593 10589 10585 10583 10582 10576 10569 10561 10557 10554 10550 10543 10534 10526 10520 10515 10512 10511 10508 10503 10498 10494 10488 10478 10479 10484
10645 10645 10645 10645 10646 10646 10647 10647 10648 10648 10647 10647 10647 10647 10647 10647 10647 10647 10647 10647 10647 10647 10647 10647 10647 10647 10647 10646 10646 10645 10645 10644 10643 10643 10642 10641 10640 10639 10638 10636 10635 10634 10632 10631 10629 10628 10627 10625 10622 10619 10618 10615 10613 10610 10608 10604 10602 10599 10596 10593 10590 10588 10583 10577 10575 10573 10570 10565 10559 10554 10551 10546 10538 10529 10520 10514 10510 10508 10504 10501 10496 10489 10487 10484 10472 10469 10477
10644 10644 10644 10645 10645 10645 10646 10646 10647 10647 10647 10647 10647 10647 10647 10647 10647 10647 10647 10646 10646 10646 10646 10646 10646 10645 10645 10644 10644 10643 10642 10641 10640 10640 10639 10638 10636 10635 10634 10633 10632 10630 10629 10627 10625 10624 10622 10621 10619 10616 10613 10611 10608 10605 10602 10599 10596 10593 10590 10587 10585 10583 10578 10571 10568 10565 10560 10555 10551 10548 10545 10541 10532 10522 10513 10508 10506 10504 10499 10494 10489 10481 10478 10479 10469 10460 10465
10643 10643 10644 10644 10644 10645 10645 10646 10646 10646 10646 10646 10646 10646 10646 10646 10646 10646 10645 10645 10645 10645 10645 10644 10644 10643 10642 10642 10641 10640 10639 10638 10637 10636 10635 10634 10633 10632 10631 10629 10628 10626 10625 10624 10622 10620 10618 10616 10614 10612 10609 10606 10603 10600 10597 10594 10591 10588 10585 10582 10579 10578 10574 10567 10563 10560 10553 10546 10542 10539 10536 10533 10525 10515 10506 10502 10500 10499 10494 10487 10481 10474 10470 10471 10466 10456 10452
10642 10643 10643 10643 10643 10644 10645 10645 10646 10646 10646 10646 10646 10646 10645 10645 10645 10644 10644 10644 10643 10643 10643 10642 10641 10640 10640 10639 10638 10637 10636 10635 10634 10633 10632 10631 10630 10628 10627 10626 10624 10623 10621 10620 10618 10616 10613 10611 10609 10607 10604 10601 10598 10595 10592 10589 10586 10582 10579 10576 10573 10572 10570 10564 10560 10556 10546 10537 10535 10532 10528 10524 10517 10506 10498 10497 10495 10492 10488 10481 10473 10468 10464 10461 10459 10453 10444
10642 10642 10642 10643 10643 10644 10644 10645 10645 10645 10645 10645 10645 10645 10644 10644 10643 10643 10643 10642 10641 10641 10640 10639 10639 10638 10637 10636 10635 10634 10633 10631 10630 10629 10628 10627 10626 10625 10623 10622 10621 10619 10617 10616 10614 10611 10609 10606 10604 10601 10598 10595 10592 10590 10586 10583 10580 10576 10573 10570 10566 10565 10564 10559 10556 10554 10543 10530 10526 10525 10520 10516 10509 10498 10491 10491 10490 10484 10480 10474 10466 10461 10460 10455 10451 10448 10440
10641 10642 10642 10642 10643 10644 10644 10644 10645 10645 10645 10644 10644 10644 10643 10642 10642 10641 10641 10640 10639 10638 10638 10637 10636 10635 10634 10633 10631 10630 10629 10628 10627 10626 10624 10623 10622 10621 10620 10618 10617 10615 10613 10611 10609 10607 10604 10602 10599 10596 10593 10590 10587 10584 10580 10577 10574 10570 10567 10564 10560 10558 10557 10553 10550 10550 10540 10526 10520 10517 10512 10507 10501 10494 10489 10486 10483 10478 10472 10466 10460 10455 10455 10451 10445 10443 10438
10641 10641 10642 10642 10643 10643 10643 10644 10644 10644 10644 10643 10643 10642 10641 10641 10640 10639 10638 10638 10637 10636 10635 10634 10633 10631 10630 10629 10628 10627 10626 10624 10623 10622 10621 10620 10619 10617 10616 10614 10613 10611 10609 10607 10604 10602 10599 10597 10594 10591 10588 10585 10581 10578 10575 10572 10569 10565 10561 10559 10555 10551 10550 10546 10543 10543 10536 10523 10517 10512 10506 10499 10493 10491 10488 10483 10478 10473 10467 10460 10453 10449 10449 10446 10440 10437 10433
10641 10641 10642 10642 10642 10643 10643 10643 10643 10643 10643 10642 10641 10640 10639 10639 10638 10637 10636 10635 10634 10633 10632 10631 10630 10628 10627 10626 10625 10624 10623 10621 10620 10619 10618 10617 10616 10614 10612 10610 10608 10606 10604 10602 10600 10597 10595 10592 10589 10585 10582 10579 10576 10573 10570 10566 10563 10560 10556 10553 10550 10545 10543 10539 10536 10535 10530 10519 10513 10509 10502 10494 10489 10487 10485 10480 10474 10469 10463 10455 10447 10444 10443 10440 10435 10431 10426
10641 10641 10641 10642 10642 10642 10642 10642 10642 10642 10641 10640 10639 10638 10637 10636 10635 10634 10634 10632 10631 10630 10629 10628 10627 10625 10624 10623 10622 10621 10620 10618 10617 10616 10614 10613 10611 10610 10608 10606 10604 10602 10600 10598 10595 10593 10590 10587 10584 10580 10577 10574 10571 10567 10564 10560 10556 10553 10550 10547 10544 10540 10536 10533 10529 10527 10523 10515 10508 10504 10497 10489 10487 10486 10481 10476 10471 10466 10461 10452 10441 10438 10438 10433 10427 10423 10417
10640 10641 10641 10641 10641 10641 10641 10641 10641 10640 10639 10638 10637 10636 10635 10634 10633 10632 10631 10630 10629 10627 10626 10625 10624 10622 10621 10620 10619 10618 10616 10615 10614 10612 10611 10609 10607 10606 10604 10602 10600 10597 10595 10593 10591 10588 10586 10582 10579 10575 10571 10568 10565 10561 10558 10554 10550 10547 10545 10542 10539 10534 10530 10526 10522 10519 10516 10510 10504 10500 10492 10483 10482 10482 10477 10472 10468 10463 10458 10448 10434 10429 10430 10425 10420 10415 10408
10640 10640 10640 10640 10640 10640 10640 10640 10639 10638 10637 10636 10635 10634 10633 10632 10631 10630 10629 10627 10626 10625 10623 10622 10621 10620 10618 10617 10616 10614 10613 10612 10610 10608 10607 10605 10603 10602 10600 10598 10596 10594 10591 10589 10586 10584 10581 10577 10573 10569 10565 10563 10560 10556 10552 10549 10545 10542 10539 10536 10532 10528 10523 10520 10516 10512 10510 10506 10500 10495 10489 10482 10478 10477 10472 10467 10463 10457 10453 10446 10429 10419 10418 10416 10413 10408 10401
10639 10640 10640 10640 10640 10639 10639 10638 10637 10636 10635 10634 10633 10632 10631 10630 10629 10627 10626 10625 10624 10622 10621 10619 10618 10617 10615 10614 10612 10611 10609 10608 10606 10604 10603 10601 10599 10598 10596 10594 10592 10590 10587 10584 10581 10578 10575 10572 10568 10564 10560 10557 10554 10551 10547 10543 10540 10537 10534 10530 10526 10522 10518 10514 10511 10508 10505 10502 10497 10491 10485 10478 10474 10472 10467 10462 10457 10451 10448 10445 10431 10417 10411 10409 10406 10402 10395
10639 10639 10639 10638 10638 10637 10637 10636 10635 10634 10633 10632 10631 10629 10628 10627 10626 10625 10624 10622 10621 10620 10618 10617 10615 10614 10612 10610 10609 10607 10605 10604 10602 10601 10599 10598 10596 10594 10592 10590 10588 10585 10582 10579 10576 10573 10570 10567 10564 10560 10556 10553 10550 10546 10542 10539 10535 10532 10529 10525 10521 10518 10514 10510 10507 10504 10501 10498 10494 10489 10483 10475 10470 10468 10463 10457 10453 10446 10441 10439 10430 10417 10408 10403 10399 10394 10387
10638 10638 10637 10637 10636 10636 10635 10634 10633 10632 10631 10629 10628 10627 10626 10624 10623 10622 10621 10620 10618 10617 10615 10614 10612 10610 10609 10607 10606 10604 10602 10601 10599 10598 10596 10594 10593 10590 10588 10586 10583 10581 10578 10575 10572 10568 10565 10562 10559 10555 10552 10549 10546 10543 10540 10536 10533 10529 10525 10522 10518 10514 10511 10506 10503 10499 10495 10492 10487 10482 10478 10472 10466 10462 10458 10452 10447 10441 10435 10432 10425 10413 10402 10395 10390 10383 10376
10637 10636 10636 10635 10634 10634 10633 10632 10631 10629 10628 10627 10626 10624 10623 10622 10621 10619 10618 10617 10615 10614 10612 10611 10609 10608 10606 10604 10603 10601 10600 10598 10596 10595 10593 10591 10589 10587 10584 10582 10580 10577 10574 10571 10568 10565 10562 10559 10555 10552 10550 10547 10544 10541 10538 10535 10532 10528 10524 10520 10515 10511 10507 10503 10498 10493 10489 10485 10480 10474 10468 10463 10458 10454 10450 10445 10439 10433 10427 10423 10419 10410 10399 10388 10381 10374 10367
10635 10635 10634 10633 10632 10631 10630 10629 10628 10627 10626 10625 10623 10622 10621 10619 10618 10617 10615 10614 10613 10611 10610 10608 10607 10605 10603 10602 10600 10598 10596 10595 10593 10591 10589 10587 10585 10583 10581 10579 10576 10574 10571 10568 10565 10563 10560 10557 10554 10551 10548 10545 10542 10540 10537 10534 10531 10527 10522 10518 10514 10509 10504 10499 10494 10489 10483 10478 10474 10470 10462 10455 10450 10446 10441 10436 10432 10426 10418 10411 10405 10400 10394 10384 10374 10365 10356
10633 10633 10632 10631 10630 10629 10628 10627 10626 10625 10623 10622 10621 10619 10618 10617 10615 10614 10613 10611 10610 10608 10606 10605 10604 10602 10600 10599 10597 10595 10593 10591 10589 10587 10586 10584 10582 10580 10579 10576 10574 10572 10570 10567 10564 10561 10559 10556 10553 10550 10547 10544 10540 10537 10534 10532 10529 10525 10521 10516 10512 10507 10502 10496 10491 10485 10480 10473 10469 10466 10459 10451 10445 10440 10433 10426 10421 10416 10410 10403 10393 10384 10380 10374 10364 10353 10342
10632 10631 10630 10629 10628 10627 10626 10625 10624 10622 10621 10620 10619 10617 10616 10614 10613 10611 10610 10608 10607 10605 10603 10602 10600 10599 10597 10595 10593 10591 10590 10588 10586 10585 10583 10581 10580 10578 10577 10575 10573 10570 10568 10565 10563 10560 10557 10554 10551 10548 10545 10542 10538 10534 10530 10527 10525 10522 10518 10513 10508 10503 10499 10493 10487 10482 10476 10469 10464 10460 10454 10446 10439 10434 10428 10419 10411 10405 10399 10394 10386 10373 10362 10357 10351 10341 10329
10629 10629 10628 10627 10626 10625 10624 10622 10621 10620 10619 10617 10616 10615 10613 10612 10610 10608 10607 10605 10604 10602 10600 10599 10597 10595 10594 10592 10590 10588 10587 10585 10584 10582 10581 10580 10578 10577 10575 10573 10571 10568 10566 10563 10561 10558 10555 10552 10549 10546 10542 10539 10536 10532 10528 10523 10519 10516 10512 10507 10503 10498 10493 10488 10482 10476 10470 10463 10457 10451 10444 10435 10427 10423 10417 10408 10399 10391 10383 10377 10372 10364 10352 10342 10336 10328 10317
10627 10627 10626 10625 10623 10622 10621 10620 10619 10617 10616 10615 10613 10612 10610 10609 10607 10605 10604 10602 10601 10600 10598 10596 10594 10592 10590 10589 10587 10586 10584 10583 10582 10581 10580 10578 10577 10575 10573 10571 10569 10567 10564 10561 10559 10556 10553 10550 10546 10543 10539 10536 10532 10529 10525 10520 10515 10511 10507 10502 10497 10492 10487 10481 10474 10467 10461 10454 10449 10443 10435 10424 10415 10409 10404 10397 10388 10379 10369 10361 10354 10347 10337 10325 10315 10308 10301
10625 10625 10624 10623 10621 10620 10619 10617 10616 10615 10613 10612 10610 10609 10607 10606 10604 10603 10601 10600 10598 10597 10595 10593 10591 10589 10588 10586 10585 10584 10583 10582 10581 10580 10579 10577 10576 10574 10572 10570 10567 10565 10562 10560 10557 10554 10551 10547 10544 10540 10537 10533 10529 10525 10522 10517 10511 10506 10500 10495 10490 10485 10480 10474 10468 10461 10455 10446 10438 10433 10425 10413 10404 10397 10390 10383 10375 10366 10356 10347 10338 10329 10320 10310 10298 10289 10282
10623 10623 10622 10620 10619 10618 10616 10615 10613 10612 10610 10609 10608 10606 10605 10603 10602 10600 10599 10597 10596 10594 10592 10590 10588 10587 10586 10585 10584 10583 10582 10581 10580 10579 10578 10576 10574 10572 10570 10568 10566 10563 10561 10558 10555 10551 10548 10544 10540 10536 10532 10529 10525 10521 10517 10512 10507 10501 10495 10489 10484 10479 10473 10468 10462 10454 10448 10440 10432 10425 10417 10405 10396 10392 10385 10375 10366 10355 10343 10332 10324 10316 10309 10300 10289 10276 10265
10621 10620 10619 10618 10616 10615 10613 10612 10611 10609 10608 10606 10605 10604 10602 10601 10599 10598 10596 10594 10592 10590 10589 10588 10586 10585 10585 10584 10583 10582 10581 10580 10579 10578 10576 10574 10573 10571 10569 10566 10564 10561 10559 10556 10552 10549 10545 10541 10536 10532 10527 10523 10519 10514 10510 10506 10501 10496 10490 10484 10479 10473 10466 10461 10455 10445 10437 10432 10426 10420 10412 10399 10384 10377 10373 10365 10357 10350 10338 10324 10313 10303 10295 10288 10279 10267 10254
10619 10618 10616 10615 10614 10612 10611 10609 10608 10606 10605 10604 10602 10601 10599 10598 10596 10595 10593 10591 10589 10588 10587 10586 10585 10585 10584 10583 10582 10581 10580 10579 10578 10576 10574 10572 10571 10569 10566 10564 10562 10559 10556 10553 10549 10545 10541 10536 10532 10527 10522 10517 10513 10508 10504 10500 10494 10489 10483 10477 10471 10465 10458 10452 10447 10439 10430 10423 10416 10411 10407 10398 10382 10369 10363 10356 10349 10343 10335 10322 10309 10298 10287 10278 10271 10261 10247
10616 10615 10614 10612 10611 10609 10608 10607 10605 10604 10602 10601 10599 10597 10596 10594 10593 10591 10590 10588 10587 10586 10586 10585 10584 10584 10583 10582 10581 10580 10579 10578 10576 10574 10573 10571 10569 10566 10564 10561 10559 10556 10553 10549 10545 10541 10537 10532 10527 10522 10517 10512 10508 10502 10497 10492 10486 10480 10474 10467 10461 10455 10448 10442 10437 10432 10424 10416 10409 10402 10399 10396 10386 10373 10361 10350 10339 10331 10322 10312 10300 10290 10279 10267 10257 10248 10238
10614 10612 10611 10610 10608 10607 10605 10604 10602 10600 10599 10597 10596 10594 10593 10591 10590 10588 10587 10586 10586 10585 10585 10584 10584 10583 10582 10581 10580 10579 10577 10576 10574 10573 10571 10569 10566 10564 10561 10558 10555 10552 10549 10545 10541 10536 10532 10527 10522 10517 10512 10506 10501 10496 10490 10484 10478 10471 10464 10458 10451 10444 10438 10432 10426 10421 10414 10406 10398 10390 10382 10377 10370 10360 10348 10337 10326 10317 10308 10298 10286 10274 10262 10249 10236 10226 10216
10611 10610 10608 10607 10605 10604 10602 10601 10599 10597 10596 10594 10593 10591 10590 10588 10587 10586 10585 10585 10585 10584 10584 10584 10583 10582 10581 10580 10578 10577 10575 10574 10572 10570 10568 10566 10563 10560 10557 10554 10551 10548 10544 10540 10536 10532 10527 10522 10516 10511 10506 10500 10494 10488 10482 10476 10470 10463 10456 10449 10441 10434 10426 10419 10413 10407 10400 10391 10383 10375 10366 10358 10352 10343 10331 10319 10308 10297 10289 10280 10269 10257 10246 10234 10222 10210 10198
10609 10607 10606 10604 10603 10601 10599 10598 10596 10594 10593 10591 10590 10589 10587 10586 10585 10585 10584 10584 10584 10584 10583 10583 10582 10581 10580 10578 10577 10575 10573 10572 10570 10567 10565 10562 10559 10556 10553 10550 10546 10543 10539 10535 10531 10527 10521 10516 10510 10505 10499 10493 10487 10481 10474 10467 10461 10455 10447 10440 10432 10424 10416 10407 10398 10392 10386 10378 10369 10360 10350 10341 10334 10328 10317 10303 10289 10277 10269 10261 10252 10243 10233 10222 10210 10198 10186
10606 10604 10603 10601 10600 10598 10597 10595 10593 10592 10590 10589 10588 10586 10585 10584 10584 10584 10583 10583 10583 10583 10582 10581 10580 10579 10578 10577 10575 10573 10571 10569 10567 10564 10561 10559 10556 10552 10549 10545 10542 10538 10534 10530 10526 10521 10516 10510 10504 10498 10492 10486 10480 10473 10467 10460 10453 10446 10438 10431 10423 10415 10407 10397 10387 10378 10370 10364 10358 10351 10341 10328 10317 10309 10302 10293 10280 10269 10260 10251 10242 10231 10221 10209 10196 10183 10171
10603 10602 10600 10599 10597 10596 10594 10593 10591 10590 10589 10587 10586 10585 10584 10583 10583 10583 10583 10583 10582 10582 10581 10580 10579 10578 10576 10575 10573 10571 10569 10566 10564 10561 10558 10555 10552 10548 10545 10541 10537 10533 10529 10525 10520 10515 10509 10503 10497 10491 10484 10479 10473 10466 10459 10452 10445 10437 10430 10423 10415 10407 10399 10390 10382 10372 10363 10353 10346 10341 10335 10326 10314 10301 10290 10280 10269 10259 10249 10239 10229 10219 10208 10196 10183 10171 10159
10601 10599 10598 10596 10595 10594 10592 10591 10590 10588 10587 10586 10585 10584 10583 10582 10582 10582 10582 10581 10581 10580 10579 10578 10577 10576 10574 10572 10570 10568 10566 10563 10560 10558 10554 10551 10549 10545 10540 10537 10532 10528 10523 10519 10514 10508 10502 10496 10490 10484 10477 10471 10465 10459 10452 10444 10437 10430 10423 10416 10409 10402 10394 10385 10375 10366 10356 10346 10334 10325 10318 10313 10306 10295 10283 10271 10259 10246 10235 10223 10211 10202 10193 10182 10169 10159 10150
10599 10597 10596 10594 10593 10592 10591 10589 10588 10587 10586 10584 10583 10582 10582 10582 10581 10581 10581 10580 10580 10579 10578 10576 10575 10573 10571 10570 10567 10565 10563 10560 10557 10554 10550 10547 10544 10540 10536 10531 10527 10522 10517 10512 10507 10501 10495 10490 10483 10477 10471 10465 10458 10451 10444 10437 10429 10422 10415 10407 10400 10394 10387 10379 10368 10357 10346 10336 10326 10315 10305 10295 10288 10280 10271 10259 10246 10233 10221 10208 10194 10184 10176 10168 10156 10145 10137
10596 10595 10594 10593 10592 10591 10589 10588 10587 10586 10584 10583 10582 10582 10581 10581 10581 10580 10580 10579 10578 10577 10576 10574 10573 10571 10569 10567 10565 10562 10560 10557 10554 10551 10547 10543 10538 10535 10531 10526 10521 10516 10511 10506 10501 10495 10489 10483 10477 10470 10464 10458 10452 10445 10438 10431 10423 10415 10407 10400 10393 10385 10379 10373 10365 10355 10343 10329 10316 10306 10297 10286 10276 10266 10256 10244 10230 10218 10207 10196 10184 10171 10161 10153 10144 10134 10125
10595 10593 10592 10591 10590 10589 10588 10586 10585 10584 10583 10582 10582 10581 10581 10580 10580 10579 10579 10578 10577 10575 10574 10572 10570 10568 10566 10564 10562 10559 10556 10553 10550 10546 10543 10539 10534 10530 10525 10520 10515 10509 10505 10500 10495 10490 10484 10477 10471 10464 10458 10452 10446 10438 10430 10423 10416 10408 10400 10392 10383 10375 10367 10360 10353 10347 10337 10323 10307 10293 10282 10272 10260 10248 10237 10226 10213 10201 10190 10180 10169 10158 10149 10140 10133 10125 10118
10593 10592 10590 10589 10588 10587 10586 10585 10584 10583 10582 10581 10581 10580 10580 10580 10579 10578 10577 10576 10575 10573 10572 10570 10568 10566 10564 10561 10559 10556 10552 10549 10546 10542 10538 10534 10530 10526 10521 10515 10510 10504 10499 10494 10488 10484 10478 10472 10465 10459 10452 10446 10439 10430 10422 10414 10406 10399 10391 10383 10374 10365 10355 10344 10336 10329 10322 10312 10298 10284 10272 10262 10251 10238 10226 10215 10204 10191 10180 10170 10159 10149 10139 10129 10121 10113 10106
10591 10590 10589 10588 10587 10585 10584 10583 10582 10581 10581 10580 10580 10579 10579 10578 10577 10577 10575 10574 10573 10571 10569 10567 10565 10563 10561 10559 10556 10554 10550 10546 10542 10539 10535 10531 10526 10522 10517 10511 10505 10499 10494 10488 10482 10476 10471 10466 10460 10453 10446 10439 10431 10423 10414 10405 10396 10388 10379 10371 10361 10352 10341 10329 10319 10310 10301 10292 10281 10269 10257 10248 10240 10231 10220 10210 10201 10190 10179 10168 10157 10144 10133 10121 10111 10102 10094
10589 10588 10587 10586 10585 10584 10583 10582 10581 10580 10579 10579 10578 10578 10577 10576 10576 10575 10573 10572 10570 10569 10567 10565 10563 10561 10558 10555 10553 10550 10547 10543 10539 10535 10531 10527 10522 10517 10512 10507 10500 10494 10488 10482 10475 10469 10463 10458 10453 10447 10440 10432 10423 10414 10405 10396 10387 10377 10368 10359 10348 10337 10326 10314 10302 10291 10279 10267 10254 10241 10229 10218 10211 10204 10198 10191 10185 10179 10171 10161 10150 10138 10126 10116 10105 10096 10087
10588 10586 10585 10584 10583 10582 10581 10580 10579 10578 10578 10577 10577 10576 10575 10574 10574 10572 10571 10569 10568 10566 10564 10562 10560 10558 10555 10553 10549 10546 10543 10539 10535 10530 10526 10521 10516 10512 10507 10501 10495 10489 10483 10476 10469 10463 10456 10450 10444 10439 10431 10423 10415 10406 10397 10387 10376 10366 10356 10346 10335 10323 10311 10298 10284 10272 10262 10251 10238 10225 10212 10199 10188 10179 10173 10166 10160 10155 10150 10144 10136 10126 10115 10106 10097 10087 10079
10586 10585 10583 10582 10581 10580 10579 10578 10577 10577 10576 10575 10575 10574 10573 10572 10571 10570 10568 10566 10565 10563 10561 10559 10556 10554 10552 10549 10546 10542 10538 10534 10530 10525 10521 10516 10510 10505 10500 10494 10489 10483 10477 10470 10464 10457 10450 10443 10437 10430 10422 10414 10406 10397 10388 10378 10367 10355 10344 10333 10323 10311 10298 10285 10272 10259 10248 10240 10230 10219 10206 10193 10179 10167 10158 10150 10143 10135 10128 10122 10117 10109 10099 10090 10081 10074 10066
10584 10583 10582 10580 10579 10578 10577 10576 10575 10575 10574 10573 10573 10572 10571 10570 10568 10567 10565 10563 10561 10559 10557 10555 10553 10551 10548 10545 10542 10539 10534 10530 10525 10520 10515 10510 10504 10499 10493 10487 10482 10476 10471 10464 10458 10450 10443 10436 10429 10421 10412 10403 10394 10386 10378 10369 10358 10345 10332 10319 10309 10299 10288 10277 10266 10254 10241 10229 10220 10210 10198 10186 10173 10160 10149 10140 10132 10124 10114 10105 10098 10091 10083 10073 10065 10057 10051
10583 10581 10580 10579 10577 10576 10575 10574 10573 10573 10572 10571 10570 10570 10568 10567 10565 10564 10562 10560 10558 10556 10554 10552 10550 10547 10545 10541 10537 10533 10529 10525 10520 10514 10509 10504 10499 10494 10488 10482 10476 10470 10464 10457 10450 10443 10435 10428 10420 10412 10403 10393 10384 10375 10366 10357 10347 10336 10323 10308 10296 10286 10277 10266 10255 10244 10231 10219 10208 10197 10187 10175 10163 10151 10138 10128 10120 10113 10105 10096 10086 10076 10068 10059 10050 10041 10033
10581 10580 10578 10577 10576 10574 10573 10572 10571 10570 10570 10569 10568 10567 10566 10564 10563 10561 10559 10558 10556 10554 10551 10549 10546 10543 10540 10536 10532 10527 10523 10518 10513 10509 10504 10499 10494 10489 10483 10477 10471 10464 10458 10450 10443 10435 10427 10419 10411 10401 10392 10382 10373 10364 10355 10345 10336 10327 10317 10303 10288 10275 10264 10253 10242 10231 10221 10210 10199 10188 10177 10166 10154 10142 10129 10118 10108 10101 10095 10088 10079 10069 10059 10049 10039 10029 10019
10579 10578 10576 10575 10574 10572 10571 10570 10569 10568 10567 10566 10565 10564 10563 10561 10559 10558 10556 10554 10552 10550 10548 10545 10542 10539 10535 10530 10526 10521 10517 10512 10508 10503 10498 10493 10488 10482 10476 10470 10463 10456 10450 10443 10435 10427 10418 10410 10401 10392 10382 10374 10365 10356 10345 10334 10324 10314 10304 10293 10279 10265 10252 10241 10231 10220 10210 10200 10190 10179 10168 10158 10148 10136 10124 10111 10100 10090 10081 10074 10067 10060 10051 10041 10032 10023 10012
10577 10576 10574 10573 10571 10570 10569 10568 10567 10566 10565 10564 10562 10561 10560 10558 10556 10554 10553 10551 10548 10546 10544 10540 10537 10533 10529 10525 10520 10516 10512 10507 10503 10498 10492 10487 10481 10475 10469 10462 10455 10448 10442 10435 10427 10419 10410 10401 10391 10382 10373 10365 10357 10347 10335 10322 10310 10298 10288 10277 10265 10253 10241 10230 10219 10208 10197 10188 10178 10168 10158 10148 10138 10127 10115 10103 10091 10080 10070 10062 10054 10046 10039 10030 10021 10013 10005
10575 10574 10572 10571 10569 10568 10567 10566 10565 10564 10562 10561 10560 10558 10556 10555 10553 10551 10549 10547 10544 10541 10538 10535 10531 10527 10524 10519 10515 10511 10506 10501 10497 10492 10486 10480 10474 10467 10460 10453 10446 10439 10432 10426 10418 10410 10402 10393 10382 10371 10361 10352 10344 10335 10324 10311 10298 10286 10274 10262 10250 10239 10227 10216 10205 10195 10185 10176 10167 10157 10147 10137 10127 10117 10106 10094 10082 10071 10061 10053 10044 10036 10028 10020 10011 10001 9993
10573 10572 10570 10569 10567 10566 10565 10563 10562 10561 10560 10558 10557 10555 10553 10551 10549 10547 10544 10542 10539 10536 10533 10529 10525 10521 10517 10513 10509 10505 10500 10495 10490 10485 10479 10473 10466 10459 10451 10444 10436 10428 10420 10413 10406 10398 10389 10380 10371 10360 10349 10339 10329 10319 10309 10298 10286 10274 10262 10250 10238 10226 10215 10205 10194 10183 10174 10165 10156 10146 10136 10126 10117 10107 10097 10086 10075 10063 10052 10044 10036 10027 10018 10010 10001 9990 9980
10571 10569 10568 10567 10565 10564 10562 10561 10559 10558 10556 10555 10553 10551 10549 10547 10545 10542 10540 10537 10534 10531 10527 10523 10519 10515 10511 10507 10503 10499 10493 10488 10482 10477 10471 10465 10458 10450 10443 10435 10427 10419 10410 10401 10393 10384 10375 10366 10358 10348 10337 10325 10314 10302 10291 10282 10271 10259 10247 10234 10222 10211 10201 10192 10181 10171 10161 10152 10143 10133 10124 10114 10106 10097 10088 10079 10068 10056 10045 10035 10027 10019 10009 9998 9989 9979 9970
10569 10567 10566 10565 10563 10561 10560 10558 10557 10555 10553 10551 10549 10547 10545 10543 10540 10538 10535 10532 10529 10525 10521 10517 10513 10509 10505 10500 10496 10491 10486 10480 10474 10469 10463 10456 10449 10442 10434 10425 10417 10410 10401 10391 10381 10371 10362 10352 10343 10335 10325 10314 10300 10287 10275 10264 10253 10243 10232 10220 10208 10197 10187 10177 10167 10157 10148 10139 10130 10121 10111 10102 10094 10086 10078 10070 10061 10050 10037 10024 10013 10005 9996 9987 9978 9969 9961
10566 10565 10563 10562 10560 10558 10557 10555 10553 10551 10549 10547 10545 10543 10541 10538 10536 10533 10530 10527 10524 10520 10516 10511 10507 10502 10497 10492 10487 10483 10478 10472 10466 10460 10455 10448 10441 10433 10426 10417 10408 10400 10390 10380 10368 10356 10346 10335 10324 10316 10309 10300 10288 10275 10262 10250 10238 10226 10216 10205 10194 10183 10174 10165 10155 10145 10136 10127 10117 10108 10099 10090 10082 10074 10065 10056 10047 10038 10027 10014 10002 9992 9984 9977 9970 9962 9953
10564 10563 10561 10559 10557 10555 10553 10551 10549 10547 10544 10542 10540 10538 10536 10533 10531 10528 10525 10521 10517 10513 10509 10504 10499 10495 10490 10485 10479 10474 10469 10463 10457 10450 10443 10437 10430 10422 10414 10406 10397 10388 10378 10368 10355 10341 10329 10318 10307 10297 10289 10281 10272 10262 10252 10241 10229 10215 10203 10193 10182 10172 10163 10154 10144 10134 10125 10116 10107 10098 10088 10079 10069 10060 10051 10041 10032 10023 10016 10007 9998 9988 9979 9972 9964 9956 9947